Hourly Weather Ruscy

Today, 21 April, Wednesday

Time Temperature Precipitation Wind Pressure Humidity
00:00 +6°C° 0 mm 1 mps 747 mmHg 87%
01:00 +6°C° 0 mm 1 mps 747 mmHg 88%
02:00 +6°C° 0 mm 1 mps 747 mmHg 88%
03:00 +6°C° 0 mm 1 mps 746 mmHg 89%
04:00 +5°C° 0 mm 0 mps 746 mmHg 89%
05:00 +5°C° 0 mm 0 mps 745 mmHg 89%
06:00 +5°C° 0 mm 0 mps 745 mmHg 84%
07:00 +6°C° 0 mm 0 mps 745 mmHg 80%
08:00 +7°C° 0 mm 0 mps 745 mmHg 76%
09:00 +9°C° 0 mm 1 mps 745 mmHg 69%
10:00 +10°C° 0 mm 1 mps 744 mmHg 63%
11:00 +10°C° 0 mm 2 mps 744 mmHg 56%
12:00 +12°C° 0 mm 2 mps 744 mmHg 54%
13:00 +12°C° 0 mm 2 mps 744 mmHg 51%
14:00 +13°C° 0 mm 2 mps 743 mmHg 49%
15:00 +13°C° 0.2 mm 2 mps 743 mmHg 52%
16:00 +13°C° 0.2 mm 2 mps 743 mmHg 55%
17:00 +13°C° 0.2 mm 2 mps 743 mmHg 59%
18:00 +10°C° 0.2 mm 2 mps 743 mmHg 65%
19:00 +9°C° 0.2 mm 2 mps 743 mmHg 72%
20:00 +8°C° 0.2 mm 2 mps 743 mmHg 78%
21:00 +7°C° 0 mm 2 mps 743 mmHg 81%
22:00 +7°C° 0 mm 2 mps 743 mmHg 83%
23:00 +6°C° 0 mm 2 mps 743 mmHg 85%

Tomorrow, 22 April, Thursday

Time Temperature Precipitation Wind Pressure Humidity
00:00 +6°C° 0 mm 2 mps 743 mmHg 85%
01:00 +5°C° 0 mm 2 mps 743 mmHg 85%
02:00 +5°C° 0 mm 2 mps 743 mmHg 85%
03:00 +4°C° 0 mm 2 mps 744 mmHg 85%
04:00 +4°C° 0 mm 2 mps 744 mmHg 85%
05:00 +3°C° 0 mm 2 mps 744 mmHg 85%
06:00 +5°C° 0 mm 2 mps 744 mmHg 79%
07:00 +7°C° 0 mm 2 mps 744 mmHg 73%
08:00 +8°C° 0 mm 2 mps 744 mmHg 67%
09:00 +9°C° 0.1 mm 3 mps 744 mmHg 67%
10:00 +10°C° 0.1 mm 3 mps 744 mmHg 67%
11:00 +11°C° 0.1 mm 4 mps 744 mmHg 67%
12:00 +10°C° 0.3 mm 4 mps 744 mmHg 72%
13:00 +8°C° 0.3 mm 5 mps 744 mmHg 76%
14:00 +7°C° 0.3 mm 5 mps 744 mmHg 81%
15:00 +7°C° 0 mm 5 mps 744 mmHg 74%
16:00 +7°C° 0 mm 4 mps 744 mmHg 68%
17:00 +7°C° 0 mm 4 mps 744 mmHg 61%
18:00 +7°C° 0 mm 3 mps 744 mmHg 64%
19:00 +5°C° 0 mm 3 mps 745 mmHg 67%
20:00 +5°C° 0 mm 2 mps 745 mmHg 70%
21:00 +4°C° 0 mm 3 mps 745 mmHg 72%
22:00 +3°C° 0 mm 3 mps 745 mmHg 75%
23:00 +3°C° 0 mm 3 mps 745 mmHg 77%

Day after tomorrow, 23 April, Friday

Time Temperature Precipitation Wind Pressure Humidity
00:00 +1°C° 0 mm 4 mps 745 mmHg 78%
01:00 +1°C° 0 mm 4 mps 745 mmHg 79%
02:00 +1°C° 0 mm 4 mps 745 mmHg 80%
03:00 0°C° 0 mm 4 mps 745 mmHg 81%
04:00 0°C° 0 mm 4 mps 745 mmHg 82%
05:00 0°C° 0 mm 5 mps 745 mmHg 83%
06:00 0°C° 0 mm 5 mps 745 mmHg 80%
07:00 +1°C° 0 mm 5 mps 745 mmHg 77%
08:00 +1°C° 0 mm 6 mps 745 mmHg 75%
09:00 +2°C° 0 mm 6 mps 746 mmHg 73%
10:00 +2°C° 0 mm 6 mps 746 mmHg 72%
11:00 +2°C° 0 mm 5 mps 746 mmHg 71%
12:00 +3°C° 0.1 mm 5 mps 746 mmHg 67%
13:00 +3°C° 0.1 mm 5 mps 746 mmHg 63%
14:00 +5°C° 0.1 mm 5 mps 746 mmHg 59%
15:00 +5°C° 0.1 mm 5 mps 746 mmHg 57%
16:00 +6°C° 0.1 mm 4 mps 746 mmHg 56%
17:00 +6°C° 0.1 mm 4 mps 746 mmHg 55%
18:00 +4°C° 0.1 mm 4 mps 746 mmHg 63%
19:00 +3°C° 0.1 mm 3 mps 746 mmHg 72%
20:00 +2°C° 0.1 mm 2 mps 747 mmHg 81%
21:00 +2°C° 0 mm 2 mps 747 mmHg 85%
22:00 +1°C° 0 mm 2 mps 747 mmHg 89%
23:00 +1°C° 0 mm 2 mps 746 mmHg 93%

24 April, Saturday

Time Temperature Precipitation Wind Pressure Humidity
00:00 -1°C° 0 mm 2 mps 746 mmHg 94%
01:00 -1°C° 0 mm 2 mps 746 mmHg 95%
02:00 -2°C° 0 mm 2 mps 746 mmHg 96%
03:00 -1°C° 0.1 mm 2 mps 746 mmHg 96%
04:00 -1°C° 0.1 mm 2 mps 746 mmHg 96%
05:00 -1°C° 0.1 mm 2 mps 746 mmHg 95%
06:00 0°C° 0.2 mm 3 mps 746 mmHg 96%
07:00 0°C° 0.2 mm 3 mps 746 mmHg 97%
08:00 +1°C° 0.2 mm 3 mps 746 mmHg 97%
09:00 +1°C° 0.2 mm 3 mps 746 mmHg 97%
10:00 0°C° 0.2 mm 4 mps 746 mmHg 97%
11:00 0°C° 0.2 mm 4 mps 746 mmHg 97%
12:00 +1°C° 0.2 mm 4 mps 746 mmHg 92%
13:00 +1°C° 0.2 mm 4 mps 746 mmHg 87%
14:00 +2°C° 0.2 mm 5 mps 746 mmHg 82%
15:00 +3°C° 0.2 mm 4 mps 746 mmHg 80%
16:00 +3°C° 0.2 mm 4 mps 746 mmHg 77%
17:00 +4°C° 0.2 mm 4 mps 746 mmHg 75%
18:00 +2°C° 0.1 mm 3 mps 746 mmHg 80%
19:00 +1°C° 0.1 mm 3 mps 746 mmHg 85%
20:00 +1°C° 0.1 mm 2 mps 746 mmHg 89%
21:00 +1°C° 0 mm 2 mps 746 mmHg 91%
22:00 -1°C° 0 mm 3 mps 746 mmHg 92%
23:00 -2°C° 0 mm 3 mps 746 mmHg 94%

25 April, Sunday

Time Temperature Precipitation Wind Pressure Humidity
00:00 -2°C° 0 mm 3 mps 746 mmHg 95%
01:00 -2°C° 0 mm 3 mps 745 mmHg 95%
02:00 -4°C° 0 mm 3 mps 745 mmHg 96%
03:00 -2°C° 0 mm 2 mps 745 mmHg 96%
04:00 -2°C° 0 mm 2 mps 745 mmHg 96%
05:00 -2°C° 0 mm 2 mps 744 mmHg 96%
06:00 -1°C° 0 mm 2 mps 744 mmHg 93%
07:00 -1°C° 0 mm 2 mps 744 mmHg 89%
08:00 +1°C° 0 mm 2 mps 744 mmHg 86%
09:00 +2°C° 0.1 mm 2 mps 744 mmHg 86%
10:00 +2°C° 0.1 mm 2 mps 744 mmHg 87%
11:00 +3°C° 0.1 mm 2 mps 745 mmHg 87%
12:00 +2°C° 0.2 mm 3 mps 745 mmHg 86%
13:00 +2°C° 0.2 mm 3 mps 745 mmHg 85%
14:00 +3°C° 0.2 mm 3 mps 745 mmHg 83%
15:00 +3°C° 0.3 mm 3 mps 745 mmHg 86%
16:00 +2°C° 0.3 mm 3 mps 745 mmHg 89%
17:00 +2°C° 0.3 mm 3 mps 745 mmHg 92%
18:00 +2°C° 0.1 mm 3 mps 745 mmHg 93%
19:00 +1°C° 0.1 mm 3 mps 745 mmHg 93%
20:00 0°C° 0.1 mm 4 mps 745 mmHg 94%
21:00 -1°C° 0.1 mm 4 mps 746 mmHg 94%
22:00 -1°C° 0.1 mm 4 mps 746 mmHg 95%
23:00 -1°C° 0.1 mm 4 mps 746 mmHg 95%

26 April, Monday

Time Temperature Precipitation Wind Pressure Humidity
00:00 -2°C° 0.1 mm 4 mps 746 mmHg 95%
01:00 -2°C° 0.1 mm 4 mps 746 mmHg 94%
02:00 -2°C° 0.1 mm 4 mps 746 mmHg 93%
03:00 -2°C° 0.1 mm 4 mps 746 mmHg 94%
04:00 -1°C° 0.1 mm 3 mps 746 mmHg 94%
05:00 -1°C° 0.1 mm 3 mps 746 mmHg 95%
06:00 -2°C° 0 mm 4 mps 747 mmHg 92%
07:00 -1°C° 0 mm 4 mps 747 mmHg 90%
08:00 0°C° 0 mm 4 mps 747 mmHg 87%
09:00 0°C° 0 mm 4 mps 747 mmHg 85%
10:00 +1°C° 0 mm 4 mps 747 mmHg 83%
11:00 +3°C° 0 mm 4 mps 747 mmHg 81%
12:00 +2°C° 0.1 mm 5 mps 747 mmHg 85%
13:00 +2°C° 0.1 mm 5 mps 747 mmHg 89%
14:00 +2°C° 0.1 mm 5 mps 747 mmHg 93%
15:00 +2°C° 0.3 mm 5 mps 747 mmHg 94%
16:00 +1°C° 0.3 mm 5 mps 747 mmHg 96%
17:00 +1°C° 0.3 mm 4 mps 747 mmHg 97%
18:00 +1°C° 0.1 mm 4 mps 747 mmHg 97%
19:00 +1°C° 0.1 mm 4 mps 747 mmHg 96%
20:00 0°C° 0.1 mm 4 mps 747 mmHg 96%
21:00 0°C° 0 mm 4 mps 747 mmHg 96%
22:00 0°C° 0 mm 4 mps 748 mmHg 96%
23:00 0°C° 0 mm 4 mps 748 mmHg 97%
Show more